Regional Weather Roundup
Issued by NWS

Home | Current Version | Previous Version | Text Only | Print | Product List | Glossary On
Versions: 1 2 3 4 5 6 7 8 9 10 11 12 13 14 15 16 17 18 19 20 21 22 23 24 25 26 27 28 29 30 31 32 33 34 35 36 37 38 39 40 41 42 43 44 45 46 47 48 49 50
000
ASUS43 KTOP 221759
RWRKS

WEATHER ROUNDUP FOR KANSAS
NATIONAL WEATHER SERVICE GOODLAND KS
1200 PM CST WED FEB 22 2017

NOTE:  "FAIR" INDICATES FEW OR NO CLOUDS BELOW 12,000 FEET WITH NO
SIGNIFICANT WEATHER AND/OR OBSTRUCTIONS TO VISIBILITY.

KSZ001>006-013>018-027>032-041>047-221900-
NORTHWEST KANSAS

CITY           SKY/WX    TMP DP  RH WIND       PRES   REMARKS
GOODLAND       SUNNY     60  23  24 N9        29.85F
6HR MIN TEMP:  36; 6HR MAX TEMP:  61;

HAYS             N/A     70  35  27 N12G18    29.77F
HILL CITY      SUNNY     70  34  26 NW10      29.80S
6HR MIN TEMP:  40; 6HR MAX TEMP:  70;

RUSSELL        SUNNY     68  30  24 MISG      29.75F
6HR MIN TEMP:  43; 6HR MAX TEMP:  68;

$$

KSZ061>065-074>080-084>089-221900-
SOUTHWEST KANSAS

CITY           SKY/WX    TMP DP  RH WIND       PRES   REMARKS
DODGE CITY     SUNNY     71  29  21 N15       29.83S
6HR MIN TEMP:  35; 6HR MAX TEMP:  71;

ELKHART          N/A     71  23  16 W13         N/A
GARDEN CITY    SUNNY     68  29  23 N9        29.84F
6HR MIN TEMP:  36; 6HR MAX TEMP:  69;

GREAT BEND     SUNNY     71  30  21 NW10      29.78F
LIBERAL        SUNNY     75  27  16 NW10      29.85F
$$

KSZ066>073-081>083-090>101-221900-
SOUTHEAST KANSAS

CITY           SKY/WX    TMP DP  RH WIND       PRES   REMARKS
CHANUTE        SUNNY     73  40  30 S23G30    29.76F
6HR MIN TEMP:  40; 6HR MAX TEMP:  73;

COFFEYVILLE    SUNNY     72  47  40 S16       29.80F
6HR MIN TEMP:  40; 6HR MAX TEMP:  72;

HUTCHINSON     SUNNY     76  29  17 W12       29.74F
6HR MIN TEMP:  41; 6HR MAX TEMP:  76;

MEDICINE LODGE   N/A     73  34  23 W3        29.77F
PARSONS        SUNNY     72  46  39 S13G21    29.81F
6HR MIN TEMP:  35; 6HR MAX TEMP:  72;

WICHITA INTL   MOSUNNY   68  43  40 SW12      29.76F
6HR MIN TEMP:  37; 6HR MAX TEMP:  68;

WICHITA JABRA  SUNNY     69  41  36 SW15      29.76S
6HR MIN TEMP:  43; 6HR MAX TEMP:  70;

WINFIELD       SUNNY     71  43  36 SW16      29.79F
6HR MIN TEMP:  43; 6HR MAX TEMP:  71;

$$

KSZ007>012-019>026-033>040-048>060-102>105-221900-
NORTHEAST KANSAS

CITY           SKY/WX    TMP DP  RH WIND       PRES   REMARKS
CONCORDIA      SUNNY     69  30  23 NW10      29.72S
6HR MIN TEMP:  52; 6HR MAX TEMP:  70;

EMPORIA        SUNNY     75  35  23 W18G26    29.73R
6HR MIN TEMP:  45; 6HR MAX TEMP:  76;

LAWRENCE       CLOUDY    72  35  25 SW14G24   29.72F
6HR MIN TEMP:  34; 6HR MAX TEMP:  73;

MANHATTAN      MOSUNNY   64  38  38 SW10      29.71F
6HR MIN TEMP:  45; 6HR MAX TEMP:  64;

OLATHE IND     MOSUNNY   72  38  29 S21G31    29.72F
6HR MIN TEMP:  39; 6HR MAX TEMP:  73;

OLATHE EXE     MOSUNNY   71  41  33 S16G23    29.72F
6HR MIN TEMP:  42; 6HR MAX TEMP:  72;

SALINA         MOSUNNY   74  27  17 NW12      29.73F
6HR MIN TEMP:  52; 6HR MAX TEMP:  74;

TOPEKA BILLARD CLOUDY    72  37  28 SW9G18    29.70F
6HR MIN TEMP:  46; 6HR MAX TEMP:  72;

TOPEKA FORBES  CLOUDY    74  37  26 SW18      29.71F
6HR MIN TEMP:  42; 6HR MAX TEMP:  75;

$$




USA.gov is the U.S. government's official web portal to all federal, state and local government web resources and services.